Location: Bagnolo San Vito
(45.0833°N, 10.8833°E)
Time: 09:52:14
(UTC+00:00)

Cosmos 1844 Rocket - Pass Details

Date: 03 March 2021
Orbit: 826 x 843 km, 71.0° (Epoch: 19 April)

Event Time Altitude Azimuth Distance (km) Brightness Sun altitude
Rises 18:22:44 0° 335° (NNW) 3,374 6.3 -14.2°
Reaches altitude 10° 18:25:12 10° 337° (NNW) 2,437 5.5 -14.6°
Maximum altitude 18:30:46 73° 63° (ENE) 866 2.6 -15.6°
Enters shadow 18:36:04 11° 148° (SSE) 2,331 4.6 -16.6°
